Hourly Weather Roundup
Issued by NWS Central Illinois

Home | Current Version | Previous Version | Text Only | Print | Product List | Glossary On
Versions: 1 2 3 4 5 6 7 8 9 10 11 12 13 14 15 16 17 18 19 20 21 22 23 24 25 26 27 28 29 30 31 32 33 34 35 36 37 38 39 40 41 42 43 44 45 46 47 48 49 50
000
NZUS43 KILX 081710
HWRILX

AREA WEATHER ROUNDUP
NATIONAL WEATHER SERVICE, LINCOLN IL
1100 AM CST THU DEC 08 2016


CITY           SKY/WX    TMP DP  RH WIND       PRES   REMARKS
BLOOMINGTON    FLURRIES  20  13  74 W23G29    30.38R WCI   3
CHAMPAIGN      FLURRIES  22  13  68 W25       30.40R WCI   5
DANVILLE       FLURRIES  22  14  71 W15G24    30.35S WCI   8
DECATUR        CLOUDY    21  11  65 W15G24    30.43S WCI   8
EFFINGHAM      PTSUNNY   26  17  69 W20       30.47S WCI  12
FLORA          MOSUNNY   28  16  60 NW17      30.47S WCI  16
GALESBURG      CLOUDY    17  10  73 W18G26    30.44R WCI   1
JACKSONVILLE   CLOUDY    21  12  68 W20       30.48S WCI   6
LACON          FLURRIES  19  10  67 W15G28    30.40F WCI   5
LAWRENCEVILLE  MOSUNNY   28  15  58 W15G25    30.44S WCI  16
LITCHFIELD     MOSUNNY   22  14  70 NW15      30.48S WCI   9
$$


CITY           SKY/WX    TMP DP  RH WIND       PRES   REMARKS
LINCOLN        CLOUDY    22  13  67 W9G17     30.44S WCI  12
MACOMB         CLOUDY    20  11  67 W22       30.49S WCI   4
MATTOON        CLOUDY    22  12  65 NW18G25   30.42R WCI   7
MT CARMEL AP   PTSUNNY   28  17  62 W17       30.45S WCI  16
OLNEY-NOBLE AP PTSUNNY   28  18  64 W16G23    30.46F WCI  17
PARIS          CLOUDY    22  15  75 W20G25    30.41S WCI   7
PEORIA         CLOUDY    19   9  65 NW17G26   30.44R WCI   4
PONTIAC        CLOUDY    21  13  70 W24       30.38S WCI   5
RANTOUL        CLOUDY    23  15  71 W21       30.38S WCI   8
SPRINGFIELD    CLOUDY    22  12  65 W16       30.47R WCI   8
TAYLORVILLE    CLOUDY    21  12  69 W18       30.47S WCI   6
$$

...REGIONAL REPORTS...


CITY           SKY/WX    TMP DP  RH WIND       PRES   REMARKS
CHICAGO O`HARE PTSUNNY   19  10  68 W20       30.27S WCI   3
KANKAKEE       FLURRIES  19  12  74 W17G25    30.34F WCI   4
MOLINE         CLOUDY    19   9  65 W21G26    30.42R WCI   3
MOUNT STERLING CLOUDY    19   9  66 W18G24    30.48S WCI   4
MOUNT VERNON   NOT AVBL
PITTSFIELD     MOSUNNY   22  12  63 W15       30.51S WCI   9
QUINCY         MOSUNNY   21   9  59 W20       30.50S WCI   6
ROCKFORD       FLURRIES  18  11  74 W21G28    30.33R WCI   1
$$


CITY           SKY/WX    TMP DP  RH WIND       PRES   REMARKS
BURLINGTON     CLOUDY    19   9  65 W13G22    30.47R WCI   6
CEDAR RAPIDS   FLURRIES  18  13  80 W24G32    30.42R WCI   0
DES MOINES     MOSUNNY   19   7  59 NW20G26   30.52S WCI   3
KIRKSVILLE     SUNNY     21   9  59 NW16G23   30.52F WCI   7
OTTUMWA        CLOUDY    19   7  59 NW23      30.50S WCI   2
ST LOUIS       MOSUNNY   27  10  49 NW15G23   30.51S WCI  15
$$


CITY           SKY/WX    TMP DP  RH WIND       PRES   REMARKS
TERRE HAUTE    CLOUDY    23  13  65 W16G23    30.41R WCI  10
EVANSVILLE     SUNNY     31  14  49 NW12      30.46S WCI  22
INDIANAPOLIS   FLURRIES  22  13  68 W22       30.34S WCI   6
LAFAYETTE      FLURRIES  21  13  71 W24G32    30.33S WCI   4
MADISON        FLURRIES  20  12  71 W13G23    30.25R WCI   7
MILWAUKEE      FLURRIES  22  10  60 W21G29    30.20R WCI   6
$$





USA.gov is the U.S. government's official web portal to all federal, state and local government web resources and services.